Regional Weather Roundup
Issued by NWS

Home | Current Version | Previous Version | Text Only | Print | Product List | Glossary On
Versions: 1 2 3 4 5 6 7 8 9 10 11 12 13 14 15 16 17 18 19 20 21 22 23 24 25 26 27 28 29 30 31 32 33 34 35 36 37 38 39 40 41 42 43 44 45 46 47 48 49 50
000
ASUS45 KBOU 032207
RWRCO

WEATHER ROUNDUP FOR COLORADO
NATIONAL WEATHER SERVICE DENVER/BOULDER CO
400 PM MDT SUN MAY 03 2015

NOTE: "FAIR" INDICATES FEW OR NO CLOUDS BELOW 12000 FEET WITH NO
SIGNIFICANT WEATHER AND/OR OBSTRUCTIONS TO VISIBILITY.

COZ001>005-013-030-031-032300-
...NORTHWEST COLORADO...

CITY           SKY/WX    TMP DP  RH WIND       PRES   REMARKS
CRAIG          CLOUDY    66  35  31 S21G30    29.98F
HAYDEN         CLOUDY    63  30  29 SW15G28   30.01F
MEEKER         CLOUDY    61  38  42 SE14G25   30.04F
MOUNT WERNER   NOT AVBL
STEAMBOAT SPGS CLOUDY    66  30  26 SW9       30.02F
WALDEN         CLOUDY    55  28  35 SW16G23   30.09S
$$

COZ006>008-011-032300-
...WEST CENTRAL VALLEYS...

CITY           SKY/WX    TMP DP  RH WIND       PRES   REMARKS
GRAND JUNCTION PTSUNNY   72  32  23 S6        29.90F
MONTROSE       CLOUDY    70  36  28 SE20G26   30.00F
EAGLE          MOSUNNY   66  30  26 W15G23    30.01F
RIFLE          CLOUDY    66  36  32 N16G26    29.99S
DELTA          CLOUDY    72  35  25 E6        29.96F
NUCLA          CLOUDY    73  30  20 SW7G16    30.01F
$$

COZ017>023-064>068-032300-
...SOUTHWEST COLORADO...

CITY           SKY/WX    TMP DP  RH WIND       PRES   REMARKS
DURANGO        MOSUNNY   70  31  23 SW7       30.01F
CORTEZ         CLOUDY    64  35  34 S18       30.03S
PAGOSA SPRINGS MOSUNNY   59  35  39 NE10G23   30.10F
TELLURIDE      CLOUDY    56  30  36 SW5       30.15F
WOLF CREEK PAS NOT AVBL
$$

COZ009-010-012-014-032>034-037-058>063-032300-
...CENTRAL COLORADO...

CITY           SKY/WX    TMP DP  RH WIND       PRES   REMARKS
ASPEN          CLOUDY    58  28  32 S6        30.08R
BUENA VISTA    NOT AVBL
COPPER MTN     CLOUDY    45  27  49 E10G20    30.29F
BERTHOUD PASS  MIX PCPN  30  21  69 NE6       30.35S VSB 1/2 WCI  24
COTTONWOOD PAS CLOUDY    43  32  65 W21G33    30.23S
GUNNISON       CLOUDY    48  37  66 N15       30.17F
KREMMLING      CLOUDY    59  27  29 CALM      30.09F
LEADVILLE      CLOUDY    43  30  60 SE8       30.20F
MONARCH PASS   CLOUDY    37  30  75 NW6       30.41S THUNDER
SALIDA         CLOUDY    67  30  25 N13G18    30.15S
SUNLIGHT       CLOUDY    48  32  53 NW5       30.27R
WILKERSON PASS SNOW      34  32  93 N6        30.33R VSB 1/2 WCI  29
$$

COZ069>075-032300-
...SAN LUIS VALLEY/SANGRE DE CRISTO MOUNTAINS...

CITY           SKY/WX    TMP DP  RH WIND       PRES   REMARKS
ALAMOSA        PTSUNNY   66  25  21 W10       30.06F
LA VETA PASS   CLOUDY    52  32  46 MISG      30.23S THUNDER
SAGUACHE       CLOUDY    59  32  36 NW16G23   30.09F
$$

COZ035-036-038>040-032300-
...NORTHERN COLORADO FRONT RANGE...

CITY           SKY/WX    TMP DP  RH WIND       PRES   REMARKS
DENVER INTL AP CLOUDY    72  38  29 E9        29.96S
DMNS CITY PARK   N/A     70  34  26 SW6G15    29.97R
AURORA         PTSUNNY   69  37  31 S13       29.98S
FRONT RANGE AP PTSUNNY   73  41  31 NE7       29.97F
ERIE MUNI ARPT CLOUDY    65  40  38 N12G17    29.98R
BOULDER MUN AP CLOUDY    61  39  44 W20G31    30.00R
CENTENNIAL     CLOUDY    67  39  35 S14       29.99F
BROOMFIELD     CLOUDY    70  36  28 N14G21    30.00R
FORT COLLINS   CLOUDY    63  41  45 NW9       29.99R
LONGMONT       LGT RAIN  62  44  53 NW22      30.00F
$$

COZ041-046-047-076>085-087-088-032300-
...PIKES PEAK/PALMER DIVIDE AND SOUTHERN FOOTHILLS...

CITY           SKY/WX    TMP DP  RH WIND       PRES   REMARKS
COLO. SPRINGS  CLOUDY    70  32  24 E18       30.01S
A. F. ACADEMY  CLOUDY    67  31  26 E13       30.01F
ELLICOTT       CLOUDY   N/A N/A N/A SE12      30.03R THUNDER
FALCON         CLOUDY    67  31  26 SE13      30.06F
FORT CARSON    CLOUDY    69  37  30 E17       29.98S
LIMON          CLOUDY    72  28  19 NE5       29.95S
MONUMENT HILL  CLOUDY    63  34  34 SE15      30.06S
TRINIDAD       CLOUDY    65  38  36 NW30G41   29.97R
$$

COZ042>045-048>051-090-091-032300-
...NORTHEAST COLORADO...

CITY           SKY/WX    TMP DP  RH WIND       PRES   REMARKS
GREELEY ARPT   CLOUDY    63  41  45 SW6       29.99R
AKRON          MOSUNNY   76  41  28 NE16G22   29.92F
BURLINGTON     PTSUNNY   81  32  17 NE6       29.89F
WRAY           SUNNY     82  32  16 NE3       29.87F
STERLING       MOSUNNY   72  43  35 NE8       29.90F
HOLYOKE        NOT AVBL
FORT MORGAN    MOSUNNY   76 -29   1 NE12      29.93S
$$

COZ086-089-092>099-032300-
...SOUTHEAST COLORADO...

CITY           SKY/WX    TMP DP  RH WIND       PRES   REMARKS
PUEBLO         CLOUDY    74  39  28 NE17G30   29.90S
LA JUNTA       MOSUNNY   84  33  16 VRB7      29.85F
LAMAR          MOSUNNY   86  38  18 E9        29.81F
SPRINGFIELD      N/A     74  39  28 E15       29.89F
$$



USA.gov is the U.S. government's official web portal to all federal, state and local government web resources and services.